Powrót do katalogu

NOAA 16 DEB

AktywnySSO
NORAD 41300·DEBRIS·🇺🇸 United States

Wystrzelony Sep 21, 2000 z Vandenberg Space Force Base

Loading…

Następne Przeloty (najbliższe 24 godziny)

TLE

ŚwieżeSource: Space-Track

Epoka: Sep 12, 2026, 06:54 UTC

1 41300U 00055HC  26255.28756442  .00001642  00000-0  84324-3 0  9993
2 41300  98.6936 279.7578 0038966 350.6177   9.4265 14.16324245549733

Śledź NOAA 16 DEB w czasie rzeczywistym z AllMySat

Download on the App Store